Tracking 19145 objects as of 26-Apr-2018
HD Live streaming from Space Station
objects crossing your sky now

SL-19 R/B

Track SL-19 R/B now!
10-day predictions


NORAD ID: 36589
Int'l Code: 2010-023B
Perigee: 881.2 km
Apogee: 1,216.3 km
Inclination: 100.5 °
Period: 106.0 minutes
Semi major axis: 7419 km
RCS: 6.505 m2 (large)
Launch date: June 2, 2010
Source: Commonwealth of Independent States (former USSR) (CIS)
Launch site: PLESETSK MISSILE AND SPACE COMPLEX (PKMTR)

Note: This is a ROCKET BODY
aabbcc
Your satellite tracking list
Your tracking list is empty




NASA's NSSDC Master Catalog

Two Line Element Set (TLE):
1 36589U 10023B   18114.85843260 -.00000062 +00000-0 -14474-4 0  9992
2 36589 100.4723 187.7395 0225773 039.0969 065.8378 13.58372667391662
Source of the keplerian elements: AFSPC